Overview Statistics Trail Chart Weather Telemetry Raw packets
 

This is the latest recevied weather packets stored in our database for station/object KF7SOJ. If no packets are shown the sender has not sent any weather packets the latest 10 day(s).

<< 92 93 94 95 96 97 98 >>
Time Temp. Humidity Pressure Rain* Wind** Luminosity Snow
1787932051 22.78° C 53% 931.5 hPa 0 mm - 164 W/m² -
1787931749 22.78° C 53% 931.7 hPa 0 mm - 145 W/m² -
1787931444 22.78° C 50% 931.7 hPa 0 mm - 126 W/m² -
1787931139 23.89° C 46% 931.5 hPa 0 mm - 114 W/m² -
1787930838 22.78° C 44% 931.5 hPa 0 mm - 107 W/m² -
1787930544 24.44° C 44% 931.5 hPa 0 mm - 100 W/m² -
1787930239 23.89° C 44% 931.3 hPa 0 mm - 89 W/m² -
1787929938 22.78° C 49% 931.5 hPa 0 mm - 80 W/m² -
1787929637 21.11° C 55% 931.6 hPa 0 mm - 73 W/m² -
1787929332 20.56° C 59% 931.6 hPa 0 mm - 76 W/m² -
1787929030 20.56° C 61% 931.8 hPa 0 mm - 80 W/m² -
1787928726 20° C 61% 931.8 hPa 0 mm - 82 W/m² -
1787928423 20° C 63% 931.8 hPa 0 mm - 90 W/m² -
1787928123 20° C 64% 931.9 hPa 0 mm - 81 W/m² -
1787927822 20° C 62% 932 hPa 0 mm - 65 W/m² -
1787927517 20° C 63% 932.1 hPa 0 mm - 59 W/m² -
1787927212 20° C 62% 931.9 hPa 0 mm - 54 W/m² -
1787926907 20° C 61% 932.1 hPa 0 mm - 47 W/m² -
1787926602 20° C 60% 932.4 hPa 0 mm - 38 W/m² -
1787926300 20° C 60% 932.3 hPa 0 mm - 31 W/m² -
1787925996 20° C 59% 932.2 hPa 0 mm - 23 W/m² -
1787925690 20° C 59% 932.1 hPa 0 mm - 21 W/m² -
1787925385 20.56° C 55% 932.1 hPa 0 mm - 19 W/m² -
1787925084 20.56° C 56% 931.9 hPa 0 mm - 24 W/m² -
1787924783 20.56° C 56% 931.8 hPa 0 mm - 32 W/m² -

* Rain latest hour (hover to see other rain measurements)
** Current wind speed in m/s (hover to see current wind gust speed)